Date,TemperatureHighF,TemperatureAvgF,TemperatureLowF,DewpointHighF,DewpointAvgF,DewpointLowF,HumidityHigh,HumidityAvg,HumidityLow,PressureMaxIn,PressureMinIn,WindSpeedMaxMPH,WindSpeedAvgMPH,GustSpeedMaxMPH,PrecipitationSumIn
2013-1-1,31,28,25,14,12,11,56,49,44,0.00,40.00,14,8,29,0.00
2013-1-2,28,25,22,15,14,12,72,62,53,0.00,40.00,7,5,22,0.00
2013-1-3,29,26,22,13,10,6,53,49,44,0.00,40.00,9,5,22,0.00
2013-1-4,23,18,15,7,5,4,62,55,48,0.00,40.00,9,7,22,0.00
2013-1-5,21,18,15,7,6,5,64,58,54,0.00,40.00,7,5,19,0.00
2013-1-6,20,18,15,7,6,4,68,58,53,0.00,40.00,7,4,16,0.00
2013-1-7,20,16,8,9,6,2,77,63,58,0.00,40.00,7,4,14,0.00
2013-1-8,8,1,-2,3,-3,-6,84,83,78,0.00,40.00,6,3,12,0.00
2013-1-14,30,27,24,28,24,19,93,89,81,0.00,40.00,10,9,22,0.00
2013-1-15,24,13,10,19,7,4,86,77,61,0.00,40.00,12,7,22,0.00
2013-1-16,13,10,8,6,4,2,76,74,71,0.00,40.00,5,4,10,0.00
2013-1-23,6,3,-1,-3,-7,-12,66,61,58,0.00,40.00,19,13,29,0.00
2013-1-24,0,-8,-14,-11,-18,-23,65,59,55,0.00,40.00,17,9,24,0.00
2013-1-25,-10,-13,-17,-21,-23,-27,65,60,55,0.00,40.00,7,2,12,0.00
2013-1-26,-14,-22,-27,-24,-30,-34,68,67,57,0.00,40.00,7,2,9,0.00
2013-1-27,-23,-28,-32,-30,-35,-41,68,67,67,0.00,40.00,4,1,7,0.00
2013-1-28,-13,-23,-35,-22,-31,-42,68,65,57,0.00,40.00,11,6,24,0.00
2013-1-29,-8,-12,-16,-16,-20,-24,71,66,63,0.00,40.00,9,5,24,0.00
2013-1-30,6,-2,-9,-3,-9,-16,73,69,66,0.00,40.00,7,5,18,0.00
2013-1-31,8,5,4,3,0,-2,81,79,72,0.00,40.00,8,3,15,0.00